This demonstration page uses our WeatherBlox Daily Observations layout. Learn more.

41.55636, -103.73856

Hourly Observations for November 15, 2015

Temp ( °F °C ) Dew Point ( °F °C ) Humidity (%) Winds ( mph kmh ) Pressure ( in mb ) Visibility ( mi km ) Precip ( " mm )
12:53 am 00:53 Clear 26 -3.3 20 -6.7 78 78 Calm 29.94 1014 10 16.0934 0 0
1:53 am 01:53 Clear 27 -2.8 21 -6.1 78 78 NNW 6 9 29.92 1013 10 16.0934 0 0
2:53 am 02:53 Clear 28 -2.2 21 -6.1 75 75 WNW 5 7 29.91 1013 10 16.0934 0 0
3:53 am 03:53 Clear 24 -4.4 19 -7.2 81 81 NNE 5 7 29.91 1013 10 16.0934 0 0
4:53 am 04:53 Clear 24 -4.4 20 -6.7 84 84 NNW 6 9 29.92 1013 10 16.0934 0 0
5:53 am 05:53 Clear 22 -5.6 19 -7.2 89 89 NNW 7 11 29.92 1013 10 16.0934 0 0
6:53 am 06:53 Sunny 23 -5 19 -7.2 85 85 NW 7 11 29.96 1015 10 16.0934 0 0
7:53 am 07:53 Sunny 28 -2.2 22 -5.6 78 78 NW 3 6 29.95 1014 10 16.0934 0 0
8:53 am 08:53 Sunny 39 3.9 27 -2.8 62 62 Calm 29.9 1013 10 16.0934 0 0
9:53 am 09:53 Sunny 46 7.8 27 -2.8 47 47 Calm 29.86 1011 10 16.0934 0 0
10:53 am 10:53 Sunny 54 12.2 22 -5.6 29 29 Calm 29.81 1010 10 16.0934 0 0
11:53 am 11:53 Sunny 59 15 22 -5.6 24 24 Calm 29.75 1008 10 16.0934 0 0
12:53 pm 12:53 Sunny 63 17.2 18 -7.8 17 17 Calm 29.71 1006 10 16.0934 0 0
1:53 pm 13:53 Sunny 63 17.2 17 -8.3 17 17 SE 5 7 29.68 1005 10 16.0934 0 0
2:53 pm 14:53 Sunny 63 17.2 15 -9.4 15 15 SE 12 19 29.64 1004 10 16.0934 0 0
3:53 pm 15:53 Sunny 58 14.4 20 -6.7 23 23 ESE 9 15 29.65 1004 10 16.0934 0 0
4:53 pm 16:53 Clear 42 5.6 19 -7.2 40 40 E 8 13 29.68 1005 10 16.0934 0 0
5:53 pm 17:53 Clear 42 5.6 19 -7.2 40 40 ESE 5 7 29.69 1005 10 16.0934 0 0
6:53 pm 18:53 Clear 38 3.3 23 -5 55 55 E 9 15 29.68 1005 10 16.0934 0 0
7:53 pm 19:53 Clear 36 2.2 26 -3.3 67 67 E 7 11 29.66 1004 10 16.0934 0 0
8:53 pm 20:53 Clear 37 2.8 31 -0.6 79 79 E 13 20 29.62 1003 10 16.0934 0 0
9:53 pm 21:53 Clear 33 0.6 30 -1.1 89 89 ESE 9 15 29.59 1002 10 16.0934 0 0
10:53 pm 22:53 Clear 28 -2.2 26 -3.3 92 92 N 3 6 29.58 1002 10 16.0934 0 0
11:53 pm 23:53 Clear 27 -2.8 24 -4.4 89 89 NNW 7 11 29.56 1001 9 14.48406 0 0

Powered by AerisWeather